Scottsbluff, NE

5:33 PM MST on December 15, 2019 (GMT -0700)
Heilig

Weather History for KBFF - November, 2019

Change the Weather History Date:

Friday, November 22, 2019

  Actual Average Record
Temperature  
Mean Temperature 32 °F -  
Max Temperature 46 °F 46 °F 72 °F (2002)
Min Temperature 17 °F 19 °F -13 °F (1947)
Degree Days  
Heating Degree Days 34    
Moisture  
Dew Point 21 °F    
Average Humidity 76    
Maximum Humidity 92    
Minimum Humidity 50    
Precipitation  
Precipitation 0.00 in - - ()
Sea Level Pressure  
Sea Level Pressure 30.13 in    
Wind  
Wind Speed 5 mph ()    
Max Wind Speed 10 mph    
Max Gust Speed -    
Visibility 10.0 miles    
Events      
Averages and records for this station are not official NWS values.
T = Trace of Precipitation, MM = Missing Value Source: Averaged Metar Reports

Daily Weather History Graph

Daily Weather History Graph

Search for Another Location

Airport or City:

Astronomy

Nov. 22, 2019 Rise Set
Actual Time 6:52 AM MST 4:28 PM MST
Civil Twilight 6:21 AM MST 4:58 PM MST
Nautical Twilight 5:47 AM MST 5:33 PM MST
Astronomical Twilight 5:14 AM MST 6:06 PM MST
Moon 1:55 AM MST (11/22) 2:35 PM MST (11/22)
Length of Visible Light 10h 37m
Length of Day
9h 36m
Waning Crescent, 19% of the Moon is Illuminated
Nov 22
Waning Crescent
Nov 26
New
Dec 3
First Quarter
Dec 11
Full
Dec 18
Last Quarter

Hourly Weather History & Observations

Time (MST) Temp. Windchill Dew Point Humidity Pressure Visibility Wind Dir Wind Speed Gust Speed Precip Events Conditions
12:53 AM 19.0 °F 10.0 °F 15.1 °F 85% 30.27 in 10.0 mi ENE 6.9 mph - N/A   Clear
1:53 AM 21.0 °F 14.6 °F 18.0 °F 88% 30.23 in 10.0 mi ENE 4.6 mph - N/A   Mostly Cloudy
2:53 AM 19.0 °F 9.0 °F 15.1 °F 85% 30.23 in 10.0 mi ESE 8.1 mph - N/A   Clear
3:53 AM 17.1 °F 6.6 °F 14.0 °F 88% 30.25 in 10.0 mi ESE 8.1 mph - N/A   Clear
4:53 AM 18.0 °F 6.9 °F 15.1 °F 88% 30.23 in 10.0 mi ESE 9.2 mph - N/A   Clear
5:53 AM 17.1 °F 10.0 °F 14.0 °F 88% 30.23 in 10.0 mi East 4.6 mph - N/A   Clear
6:53 AM 17.1 °F 10.0 °F 14.0 °F 88% 30.23 in 10.0 mi East 4.6 mph - N/A   Clear
7:53 AM 21.0 °F 11.4 °F 17.1 °F 85% 30.23 in 10.0 mi East 8.1 mph - N/A   Clear
8:53 AM 28.0 °F 21.7 °F 23.0 °F 81% 30.19 in 10.0 mi ESE 5.8 mph - N/A   Clear
9:53 AM 33.1 °F 25.5 °F 26.1 °F 75% 30.18 in 10.0 mi SE 9.2 mph - N/A   Clear
10:53 AM 37.0 °F 33.3 °F 27.0 °F 67% 30.14 in 10.0 mi SE 4.6 mph - N/A   Clear
11:53 AM 42.1 °F 38.4 °F 28.0 °F 58% 30.09 in 10.0 mi WSW 5.8 mph - N/A   Partly Cloudy
12:53 PM 44.1 °F 41.5 °F 28.0 °F 53% 30.04 in 10.0 mi NNW 4.6 mph - N/A   Clear
1:53 PM 45.0 °F 43.5 °F 28.0 °F 52% 30.01 in 10.0 mi Variable 3.5 mph - N/A   Clear
2:53 PM 46.0 °F 43.1 °F 28.0 °F 50% 30.01 in 10.0 mi NW 5.8 mph - N/A   Clear
3:53 PM 43.0 °F 40.3 °F 27.0 °F 53% 30.02 in 10.0 mi NNW 4.6 mph - N/A   Clear
4:53 PM 36.0 °F - 26.1 °F 67% 30.04 in 10.0 mi Calm Calm - N/A   Clear
5:53 PM 30.0 °F 26.5 °F 23.0 °F 75% 30.08 in 10.0 mi North 3.5 mph - N/A   Clear
6:53 PM 24.1 °F 17.0 °F 19.9 °F 84% 30.11 in 10.0 mi NNW 5.8 mph - N/A   Clear
8:53 PM 26.1 °F 17.6 °F 23.0 °F 88% 30.08 in 10.0 mi NW 8.1 mph - N/A   Clear
9:53 PM 21.9 °F 15.7 °F 19.9 °F 92% 30.06 in 10.0 mi NNW 4.6 mph - N/A   Clear
10:53 PM 24.1 °F 15.2 °F 21.0 °F 88% 30.06 in 10.0 mi NW 8.1 mph - N/A   Clear
11:53 PM 28.9 °F 19.8 °F 21.9 °F 75% 30.05 in 10.0 mi WNW 10.4 mph - N/A   Clear